Location: *
(46.4000°N, 12.6667°E)
Time: 03:11:39
(UTC+00:00)

ISS - Pass Details

Date: 06 December 2021
Orbit: 413 x 422 km, 51.6° (Epoch: 22 January)

Event Time Altitude Azimuth Distance (km) Brightness Sun altitude
Rises 16:52:57 0° 295° (WNW) 2,385 0.9 -14.9°
Reaches altitude 10° 16:55:06 10° 290° (WNW) 1,515 -0.1 -15.2°
Maximum altitude 16:58:24 49° 215° (SW) 552 -2.9 -15.8°
Enters shadow 17:01:10 14° 141° (SE) 1,305 -1.5 -16.2°
